GW6966 Weather Reports


time (UTC)temp
F
wind
direction
speed
knots
gust
knots
rain 1hr
in
rain 24hr
in
rain mn
in
humidity
%
barometer
mb
20260509124010 61 346 0.0 0.0 0.00 0.00 0.00 91 1012.6
20260509123508 61 341 0.0 0.0 0.00 0.00 0.00 92 1012.6
20260509123004 61 341 0.0 0.0 0.00 0.00 0.00 92 1012.6
20260509122500 60 341 0.0 0.0 0.00 0.00 0.00 92 1012.4
20260509121957 60 341 0.0 0.0 0.00 0.00 0.00 92 1012.5
20260509121454 60 341 0.0 0.0 0.00 0.00 0.00 92 1012.6
20260509120952 60 341 0.0 0.0 0.00 0.00 0.00 93 1012.7
20260509120449 60 341 0.0 0.0 0.00 0.00 0.00 93 1012.3
20260509115947 60 341 0.0 0.0 0.00 0.00 0.00 93 1012.6
20260509115444 60 341 0.0 0.0 0.00 0.00 0.00 93 1012.7
20260509114942 59 341 0.0 0.0 0.00 0.00 0.00 93 1012.6
20260509114440 59 341 0.0 0.0 0.00 0.00 0.00 93 1012.4
20260509113939 59 341 0.0 0.0 0.00 0.00 0.00 93 1012.4
20260509113436 59 341 0.0 0.0 0.00 0.00 0.00 93 1012.3
20260509112933 59 341 0.0 0.0 0.00 0.00 0.00 93 1012.6
20260509112430 59 341 0.0 0.0 0.00 0.00 0.00 93 1012.3
20260509111927 59 341 0.0 0.0 0.00 0.00 0.00 93 1012.5
20260509111424 59 341 0.0 0.0 0.00 0.00 0.00 93 1012.6
20260509110922 59 341 0.0 0.0 0.00 0.00 0.00 93 1012.6
20260509110417 59 341 0.0 0.0 0.00 0.00 0.00 93 1012.5
20260509105916 59 341 0.0 0.0 0.00 0.00 0.00 93 1012.6
20260509105414 59 342 0.0 0.0 0.00 0.00 0.00 93 1012.6
20260509104910 59 343 0.0 0.0 0.00 0.00 0.00 92 1012.0
20260509104407 59 344 0.0 0.0 0.00 0.00 0.00 92 1011.7
20260509103905 59 344 0.0 0.0 0.00 0.00 0.00 92 1012.1
20260509103402 59 344 0.0 0.0 0.00 0.00 0.00 92 1012.2
20260509102901 59 344 0.0 0.0 0.00 0.00 0.00 92 1012.2
20260509102357 59 344 0.0 0.0 0.00 0.00 0.00 92 1012.4
20260509101853 59 344 0.0 0.0 0.00 0.00 0.00 92 1012.0
20260509101349 59 344 0.0 0.0 0.00 0.00 0.00 92 1012.2
20260509100847 59 344 0.0 0.0 0.00 0.00 0.00 92 1012.3
20260509100344 59 344 0.0 0.0 0.00 0.00 0.00 92 1012.3
20260509095841 59 344 0.0 0.0 0.00 0.00 0.00 92 1012.5
20260509095338 59 321 0.0 0.0 0.00 0.00 0.00 92 1012.9
20260509094835 59 321 0.0 0.0 0.00 0.00 0.00 92 1012.8
20260509094332 59 321 0.0 0.0 0.00 0.00 0.00 92 1012.9
20260509093830 59 321 0.0 0.0 0.00 0.00 0.00 92 1012.8
20260509093326 59 24 0.0 0.0 0.00 0.00 0.00 92 1012.7
20260509092825 59 333 0.0 0.0 0.00 0.00 0.00 92 1012.8
20260509092323 59 333 0.0 0.0 0.00 0.00 0.00 92 1013.0
20260509091820 59 333 0.0 0.0 0.00 0.00 0.00 92 1013.0
20260509091317 59 333 0.0 0.0 0.00 0.00 0.00 93 1012.6
20260509090814 59 333 0.0 0.0 0.00 0.00 0.00 93 1012.4
20260509090311 58 333 0.0 0.0 0.00 0.00 0.00 93 1012.6
20260509085809 58 333 0.0 0.0 0.00 0.00 0.00 93 1012.8
20260509085307 58 333 0.0 0.0 0.00 0.00 0.00 93 1012.7
20260509084803 58 333 0.0 0.0 0.00 0.00 0.00 93 1012.7
20260509084259 58 333 0.0 0.0 0.00 0.00 0.00 93 1012.7
20260509083757 58 333 0.0 0.0 0.00 0.00 0.00 93 1012.5
20260509083253 58 333 0.0 0.0 0.00 0.00 0.00 93 1012.6
20260509082750 58 333 0.0 0.0 0.00 0.00 0.00 93 1012.5
20260509082247 58 333 0.0 0.0 0.00 0.00 0.00 93 1012.9
20260509081744 58 333 0.0 0.0 0.00 0.00 0.00 93 1012.5
20260509081241 57 333 0.0 0.0 0.00 0.00 0.00 93 1012.2
20260509080739 57 333 0.0 0.0 0.00 0.00 0.00 93 1012.3
20260509080237 57 333 0.0 0.0 0.00 0.00 0.00 93 1012.3
20260509075735 57 333 0.0 0.0 0.00 0.00 0.00 92 1012.3
20260509075232 57 333 0.0 0.0 0.00 0.00 0.00 92 1012.5
20260509074729 57 333 0.0 0.0 0.00 0.00 0.00 92 1012.6
20260509074227 58 333 0.0 0.0 0.00 0.00 0.00 92 1012.4
20260509073722 58 333 0.0 0.0 0.00 0.00 0.00 93 1012.5
20260509073219 57 333 0.0 0.0 0.00 0.00 0.00 93 1012.5
20260509072716 57 333 0.0 0.0 0.00 0.00 0.00 93 1012.3
20260509072213 57 333 0.0 0.0 0.00 0.00 0.00 93 1012.3
20260509071709 57 333 0.0 0.0 0.00 0.00 0.00 92 1012.2
20260509071207 57 333 0.0 0.0 0.00 0.00 0.00 92 1012.1
20260509070703 57 333 0.0 0.0 0.00 0.00 0.00 92 1012.2
20260509070200 57 333 0.0 0.0 0.00 0.00 0.00 92 1012.2
20260509065656 57 333 0.0 0.0 0.00 0.00 0.00 91 1012.4
20260509065152 57 333 0.0 0.0 0.00 0.00 0.00 91 1012.3
20260509064649 58 333 0.0 0.0 0.00 0.00 0.00 90 1012.5
20260509064147 58 333 0.0 0.0 0.00 0.00 0.00 90 1012.5
20260509063644 58 333 0.0 0.0 0.00 0.00 0.00 90 1012.7
20260509063140 58 333 0.0 0.0 0.00 0.00 0.00 90 1012.8
20260509062637 58 333 0.0 0.0 0.00 0.00 0.00 90 1012.8
20260509062134 58 333 0.0 0.0 0.00 0.00 0.00 90 1013.0
20260509061631 58 333 0.0 0.0 0.00 0.00 0.00 90 1013.4
20260509061129 58 333 0.0 0.0 0.00 0.00 0.00 90 1013.4
20260509060626 58 333 0.0 0.0 0.00 0.00 0.00 90 1013.5
20260509060121 58 333 0.0 0.0 0.00 0.00 0.00 90 1013.6
20260509055617 58 333 0.0 0.0 0.00 0.00 0.00 90 1013.8
20260509055113 58 333 0.0 0.0 0.00 0.00 0.00 90 1014.0
20260509054610 58 333 0.0 0.0 0.00 0.00 0.00 91 1014.0
20260509054108 58 333 0.0 0.0 0.00 0.00 0.00 91 1013.8
20260509053607 58 333 0.0 0.0 0.00 0.00 0.00 91 1013.9
20260509053103 58 333 0.0 0.0 0.00 0.00 0.00 91 1013.7
20260509052601 57 333 0.0 0.0 0.00 0.00 0.00 91 1013.7
20260509052059 57 333 0.0 0.0 0.00 0.00 0.00 90 1013.4
20260509051556 57 333 0.0 0.0 0.00 0.00 0.00 90 1013.4
20260509051053 57 333 0.0 0.0 0.00 0.00 0.00 90 1013.6
20260509050550 58 333 0.0 0.0 0.00 0.00 0.00 89 1013.7
20260509050046 58 333 0.0 0.0 0.00 0.00 0.00 89 1013.6
20260509045544 58 333 0.0 0.0 0.00 0.00 0.00 89 1013.7
20260509045041 58 333 0.0 0.0 0.00 0.00 0.00 89 1013.7
20260509044538 58 333 0.0 0.0 0.00 0.00 0.00 89 1013.7
20260509044035 58 333 0.0 0.0 0.00 0.00 0.00 89 1014.0
20260509043532 58 333 0.0 0.0 0.00 0.00 0.00 89 1013.9
20260509043027 58 333 0.0 0.0 0.00 0.00 0.00 89 1013.9
20260509042524 58 333 0.0 0.0 0.00 0.00 0.00 88 1013.9
20260509042020 58 333 0.0 0.0 0.00 0.00 0.00 87 1013.8
20260509041517 58 333 0.0 0.0 0.00 0.00 0.00 87 1013.7
20260509041015 59 333 0.0 0.0 0.00 0.00 0.00 87 1014.0
20260509040513 59 333 0.0 0.0 0.00 0.00 0.00 86 1014.1
20260509040009 59 333 0.0 0.0 0.00 0.00 0.00 86 1014.3
20260509035506 59 333 0.0 0.0 0.00 0.00 0.00 85 1014.4
20260509035003 59 333 0.0 0.0 0.00 0.00 0.00 85 1014.4
20260509034501 59 333 0.0 0.0 0.00 0.00 0.00 84 1014.2
20260509033957 59 333 0.0 0.0 0.00 0.00 0.00 84 1014.2
20260509033454 60 333 0.0 0.0 0.00 0.00 0.00 83 1014.4
20260509032951 60 333 0.0 0.0 0.00 0.00 0.00 83 1014.7
20260509032448 60 333 0.0 0.0 0.00 0.00 0.00 83 1014.8
20260509031946 60 333 0.0 0.0 0.00 0.00 0.00 82 1014.8
20260509031443 60 333 0.0 0.0 0.00 0.00 0.00 81 1014.7
20260509030940 60 333 0.0 0.0 0.00 0.00 0.00 81 1014.7
20260509030439 61 333 0.0 0.0 0.00 0.00 0.00 81 1014.6
20260509025935 61 333 0.0 0.0 0.00 0.00 0.00 80 1014.7
20260509025431 61 334 0.0 0.0 0.00 0.00 0.00 79 1014.9
20260509024926 61 334 0.0 0.0 0.00 0.00 0.00 78 1014.8
20260509024422 62 333 0.0 0.0 0.00 0.00 0.00 78 1014.7
20260509023919 62 333 0.0 0.0 0.00 0.00 0.00 78 1014.8
20260509023417 62 333 0.0 0.0 0.00 0.00 0.00 76 1015.0
20260509022913 62 334 0.0 0.0 0.00 0.00 0.00 76 1014.9
20260509022411 62 334 0.0 0.0 0.00 0.00 0.00 75 1014.8
20260509021908 62 334 0.0 0.0 0.00 0.00 0.00 74 1014.9
20260509021405 62 333 0.0 0.0 0.00 0.00 0.00 76 1014.9
20260509020902 63 333 0.0 0.0 0.00 0.00 0.00 74 1014.9
20260509020400 63 28 0.0 0.0 0.00 0.00 0.00 73 1014.8
20260509015857 63 28 0.0 0.0 0.00 0.00 0.00 74 1014.7
20260509015355 63 28 0.0 0.0 0.00 0.00 0.00 74 1014.8
20260509014852 63 28 0.0 0.0 0.00 0.00 0.00 74 1014.7
20260509014349 63 21 0.0 0.0 0.00 0.00 0.00 74 1014.7
20260509013845 63 21 0.0 0.0 0.00 0.00 0.00 73 1014.7
20260509013342 63 14 0.0 0.0 0.00 0.00 0.00 72 1014.7
20260509012838 63 324 0.0 0.0 0.00 0.00 0.00 72 1014.8
20260509012334 64 313 0.0 0.0 0.00 0.00 0.00 72 1014.8
20260509011832 64 89 0.0 0.0 0.00 0.00 0.00 72 1014.4
20260509011329 64 79 0.0 0.0 0.00 0.00 0.00 71 1014.6
20260509010827 64 122 0.0 0.0 0.00 0.00 0.00 71 1014.6
20260509010324 64 124 0.0 0.0 0.00 0.00 0.00 69 1014.3
20260509005821 64 320 0.0 0.0 0.00 0.00 0.00 70 1014.6
20260509005319 64 282 0.0 0.0 0.00 0.00 0.00 70 1014.4
20260509004819 64 188 0.0 0.0 0.00 0.00 0.00 69 1014.6
20260509004316 64 188 0.0 0.0 0.00 0.00 0.00 70 1014.3
20260509003814 64 192 0.0 0.0 0.00 0.00 0.00 69 1014.6
20260509003312 64 192 0.0 0.0 0.00 0.00 0.00 68 1014.4
20260509002809 65 178 0.0 0.0 0.00 0.00 0.00 68 1014.6
20260509002306 65 217 0.0 0.0 0.00 0.00 0.00 67 1014.4
20260509001804 65 158 0.0 0.9 0.00 0.00 0.00 66 1014.7
20260509001259 65 157 0.0 0.0 0.00 0.00 0.00 65 1014.8
20260509000757 65 199 0.0 0.0 0.00 0.00 0.00 65 1014.7
20260509000256 65 199 0.0 0.0 0.00 0.00 0.00 65 1014.4
20260508235751 66 199 0.0 0.0 0.00 0.00 0.00 65 1014.6
20260508235248 66 212 0.0 0.0 0.00 0.00 0.00 64 1014.6
20260508234745 66 155 0.0 0.0 0.00 0.00 0.00 63 1014.3
20260508234241 66 134 0.0 0.0 0.00 0.00 0.00 62 1014.4
20260508233741 66 132 0.0 0.0 0.00 0.00 0.00 62 1014.3
20260508233238 66 119 0.0 0.0 0.00 0.00 0.00 63 1014.4
20260508232736 66 119 0.0 0.0 0.00 0.00 0.00 62 1014.1
20260508232232 67 184 0.0 0.0 0.00 0.00 0.00 61 1014.0
20260508231730 67 264 0.0 0.0 0.00 0.00 0.00 60 1014.2
20260508231226 67 269 0.0 0.0 0.00 0.00 0.00 60 1014.2
20260508230723 67 290 0.0 0.0 0.00 0.00 0.00 61 1014.4
20260508230219 67 291 0.0 0.0 0.00 0.00 0.00 61 1014.1
20260508225718 67 290 0.0 0.0 0.00 0.00 0.00 64 1014.0
20260508225214 67 290 0.0 0.0 0.00 0.00 0.00 61 1014.1
20260508224712 68 290 0.0 0.0 0.00 0.00 0.00 60 1014.0
20260508224209 68 290 0.0 0.0 0.00 0.00 0.00 59 1014.0
20260508223707 68 81 0.0 0.0 0.00 0.00 0.00 58 1014.2
20260508223204 68 64 0.0 0.0 0.00 0.00 0.00 61 1014.0
20260508222701 68 31 0.0 0.0 0.00 0.00 0.00 59 1014.2
20260508222158 68 331 0.0 0.0 0.00 0.00 0.00 61 1014.3
20260508221654 68 301 0.0 0.0 0.00 0.00 0.00 61 1014.1
20260508221150 68 110 0.0 0.0 0.00 0.00 0.00 59 1014.4
20260508220647 68 110 0.0 0.0 0.00 0.00 0.00 60 1014.3
20260508220144 68 110 0.0 0.0 0.00 0.00 0.00 58 1014.1
20260508215640 69 123 0.0 0.0 0.00 0.00 0.00 58 1014.3
20260508215137 69 144 0.0 0.0 0.00 0.00 0.00 57 1014.0
20260508214634 69 126 0.0 0.0 0.00 0.00 0.00 58 1014.1
20260508214131 69 126 0.0 0.0 0.00 0.00 0.00 58 1014.3
20260508213628 69 126 0.0 0.0 0.00 0.00 0.00 58 1014.4
20260508213124 69 120 0.0 0.0 0.00 0.00 0.00 56 1014.2
20260508212620 69 120 0.0 0.0 0.00 0.00 0.00 58 1014.3
20260508212117 69 115 0.0 0.0 0.00 0.00 0.00 54 1014.2
20260508211612 69 123 0.0 0.0 0.00 0.00 0.00 57 1014.3
20260508211109 69 129 0.0 0.0 0.00 0.00 0.00 53 1014.2
20260508210605 68 130 0.0 0.0 0.00 0.00 0.00 57 1014.3
20260508205600 68 131 0.0 0.0 0.00 0.00 0.00 60 1014.3
20260508205056 69 131 0.0 0.0 0.00 0.00 0.00 59 1014.1
20260508204552 69 131 0.0 0.0 0.00 0.00 0.00 56 1014.2
20260508204048 69 131 0.0 0.0 0.00 0.00 0.00 57 1014.3
20260508203545 69 131 0.0 0.0 0.00 0.00 0.00 59 1014.4
20260508203041 69 131 0.0 0.0 0.00 0.00 0.00 57 1014.6
20260508202538 69 131 0.0 0.0 0.00 0.00 0.00 56 1014.7
20260508202035 69 131 0.0 0.0 0.00 0.00 0.00 53 1014.6
20260508201531 69 131 0.0 0.0 0.00 0.00 0.00 53 1014.7
20260508201028 69 131 0.0 0.0 0.00 0.00 0.00 51 1014.8
20260508200525 69 130 0.0 0.0 0.00 0.00 0.00 54 1014.6
20260508200021 69 130 0.0 0.0 0.00 0.00 0.00 55 1014.3
20260508195518 69 130 0.0 0.0 0.00 0.00 0.00 53 1014.4
20260508195014 69 130 0.0 0.0 0.00 0.00 0.00 54 1014.4
20260508194511 69 147 0.9 0.9 0.00 0.00 0.00 50 1014.8
20260508194008 69 107 0.0 0.0 0.00 0.00 0.00 53 1015.0
20260508193504 69 107 0.0 0.0 0.00 0.00 0.00 49 1015.1
20260508193001 69 108 0.0 0.0 0.00 0.00 0.00 52 1015.3
20260508192458 69 91 0.0 0.0 0.00 0.00 0.00 52 1015.2
20260508191955 70 122 0.0 0.0 0.00 0.00 0.00 51 1015.3
20260508191452 70 127 0.0 0.0 0.00 0.00 0.00 47 1015.2
20260508190949 70 285 0.0 0.0 0.00 0.00 0.00 49 1015.2
20260508190446 70 276 0.9 0.9 0.00 0.00 0.00 42 1015.7
20260508185942 69 140 0.0 0.0 0.00 0.00 0.00 48 1015.6
20260508185440 69 136 0.0 0.9 0.00 0.00 0.00 49 1015.8
20260508184937 69 340 0.0 0.0 0.00 0.00 0.00 51 1015.8
20260508184434 70 37 0.0 0.0 0.00 0.00 0.00 45 1015.9
20260508183931 69 216 0.0 0.0 0.00 0.00 0.00 45 1015.9
20260508183427 70 115 0.0 0.0 0.00 0.00 0.00 44 1016.2
20260508182922 70 278 0.0 0.0 0.00 0.00 0.00 51 1016.2
20260508182420 70 114 0.0 0.0 0.00 0.00 0.00 52 1015.9
20260508181915 70 148 0.0 0.0 0.00 0.00 0.00 52 1016.0
20260508181412 69 274 0.9 0.9 0.00 0.00 0.00 51 1016.1
20260508180909 69 127 0.0 0.0 0.00 0.00 0.00 49 1016.0
20260508180406 69 281 0.0 0.0 0.00 0.00 0.00 46 1016.2
20260508175902 69 274 0.0 0.0 0.00 0.00 0.00 46 1016.1
20260508175359 69 243 0.0 0.0 0.00 0.00 0.00 47 1016.3
20260508174857 69 264 0.0 0.0 0.00 0.00 0.00 52 1016.5
20260508174354 69 277 0.0 0.9 0.00 0.00 0.00 50 1016.5
20260508173850 69 200 0.0 0.0 0.00 0.00 0.00 49 1016.3
20260508173348 70 138 0.0 0.0 0.00 0.00 0.00 52 1016.2
20260508172843 70 290 0.0 0.0 0.00 0.00 0.00 58 1016.5
20260508172341 69 272 0.0 0.0 0.00 0.00 0.00 56 1016.6
20260508171837 69 318 0.0 0.0 0.00 0.00 0.00 56 1016.8
20260508171333 69 142 1.7 1.7 0.00 0.00 0.00 51 1016.9
20260508170830 69 285 0.9 1.7 0.00 0.00 0.00 54 1016.9
20260508170328 69 120 0.9 1.7 0.00 0.00 0.00 52 1017.0
20260508165825 69 84 0.0 0.0 0.00 0.00 0.00 56 1016.9
20260508165322 68 152 0.0 0.0 0.00 0.00 0.00 60 1017.1
20260508164818 68 287 0.9 0.9 0.00 0.00 0.00 56 1017.2
20260508164315 68 122 0.0 0.0 0.00 0.00 0.00 55 1017.5
20260508163813 68 126 0.0 0.0 0.00 0.00 0.00 58 1017.5
20260508163310 68 298 0.0 0.0 0.00 0.00 0.00 59 1017.5
20260508162806 67 307 0.0 0.9 0.00 0.00 0.00 61 1017.2
20260508162306 66 109 1.7 1.7 0.00 0.00 0.00 58 1017.6
20260508161800 66 132 0.0 0.0 0.00 0.00 0.00 61 1017.7
20260508161257 66 258 0.0 0.0 0.00 0.00 0.00 60 1017.7
20260508160755 66 110 0.0 0.0 0.00 0.00 0.00 62 1018.0
20260508160253 66 303 0.0 0.9 0.00 0.00 0.00 63 1018.1
20260508155749 66 251 0.0 0.0 0.00 0.00 0.00 64 1018.1
20260508155246 66 125 0.0 0.0 0.00 0.00 0.00 62 1017.8
20260508154743 66 144 0.9 0.9 0.00 0.00 0.00 63 1018.2
20260508154241 65 120 0.0 0.0 0.00 0.00 0.00 66 1018.4
20260508153737 65 128 0.0 0.0 0.00 0.00 0.00 64 1018.4
20260508153235 65 125 0.0 0.0 0.00 0.00 0.00 65 1018.5
20260508152731 64 17 0.0 0.0 0.00 0.00 0.00 71 1018.5
20260508152226 64 300 0.0 0.9 0.00 0.00 0.00 66 1018.4
20260508151723 64 140 0.0 0.0 0.00 0.00 0.00 70 1018.5
20260508151220 63 140 0.0 0.0 0.00 0.00 0.00 69 1018.4
20260508150716 62 127 0.9 0.9 0.00 0.00 0.00 69 1018.6
20260508150213 63 108 0.0 0.0 0.00 0.00 0.00 71 1018.4
20260508145709 62 128 0.0 0.0 0.00 0.00 0.00 69 1018.4
20260508145205 63 45 0.0 0.0 0.00 0.00 0.00 71 1018.6
20260508144703 63 112 0.0 0.0 0.00 0.00 0.00 73 1018.5
20260508144200 62 120 0.0 0.0 0.00 0.00 0.00 70 1018.5
20260508143658 62 112 0.0 0.0 0.00 0.00 0.00 72 1018.6
20260508143155 62 113 0.0 0.0 0.00 0.00 0.00 75 1018.5
20260508142651 61 107 0.0 0.0 0.00 0.00 0.00 76 1018.5
20260508142148 61 107 0.0 0.0 0.00 0.00 0.00 75 1018.5
20260508141644 61 107 0.0 0.0 0.00 0.00 0.00 78 1018.4
20260508141142 60 107 0.0 0.0 0.00 0.00 0.00 80 1018.5
20260508140639 60 95 0.0 0.0 0.00 0.00 0.00 77 1018.1
20260508140136 59 16 0.0 0.0 0.00 0.00 0.00 80 1018.2
20260508135631 59 16 0.0 0.0 0.00 0.00 0.00 82 1018.2
20260508135127 58 16 0.0 0.0 0.00 0.00 0.00 84 1018.4
20260508134624 58 15 0.0 0.0 0.00 0.00 0.00 84 1018.2
20260508134122 57 15 0.0 0.0 0.00 0.00 0.00 85 1018.4
20260508133618 57 19 0.0 0.0 0.00 0.00 0.00 85 1018.6
20260508133116 57 19 0.0 0.0 0.00 0.00 0.00 85 1018.6
20260508132613 57 19 0.0 0.0 0.00 0.00 0.00 86 1018.6
20260508132110 56 19 0.0 0.0 0.00 0.00 0.00 86 1018.6
20260508131605 56 19 0.0 0.0 0.00 0.00 0.00 87 1018.5
20260508131103 56 19 0.0 0.0 0.00 0.00 0.00 87 1018.4
20260508130559 55 19 0.0 0.0 0.00 0.00 0.00 88 1018.5
20260508130055 55 19 0.0 0.0 0.00 0.00 0.00 89 1018.4
20260508125551 55 19 0.0 0.0 0.00 0.00 0.00 90 1018.6
20260508125049 54 19 0.0 0.0 0.00 0.00 0.00 90 1018.5
20260508124548 54 18 0.0 0.0 0.00 0.00 0.00 92 1018.4